Glendive, MT

9:53 AM MDT on April 23, 2018 (GMT -0600)
Dawson Community

Weather History for KGDV - March, 2014

Change the Weather History Date:

Friday, March 28, 2014

  Actual Average Record
Temperature  
Mean Temperature 28 °F 40 °F  
Max Temperature 33 °F 51 °F 81 °F (2015)
Min Temperature 23 °F 28 °F 7 °F (1996)
Degree Days  
Heating Degree Days 37 25  
Month to date heating degree days 873  
Year to date heating degree days 3454  
Since 1 July heating degree days 6442  
Cooling Degree Days 0 0  
Month to date cooling degree days 0  
Year to date cooling degree days 0  
Since 1 July cooling degree days 0  
Moisture  
Dew Point 21 °F    
Average Humidity 76    
Maximum Humidity 93    
Minimum Humidity 59    
Precipitation  
Precipitation 0.03 in 0.03 in 0.03 in (2014)
Month to date precipitation 0.52  
Year to date precipitation 1.14  
Sea Level Pressure  
Sea Level Pressure 29.99 in    
Wind  
Wind Speed 9 mph (ENE)    
Max Wind Speed 14 mph    
Max Gust Speed -    
Visibility 9 miles    
Events      
T = Trace of Precipitation, MM = Missing Value Source: NWS Daily Summary

Daily Weather History Graph

Daily Weather History Graph

Search for Another Location

Airport or City:

Astronomy

Mar. 28, 2014 Rise Set
Actual Time 6:46 AM MDT 7:23 PM MDT
Civil Twilight 6:15 AM MDT 7:54 PM MDT
Nautical Twilight 5:38 AM MDT 8:30 PM MDT
Astronomical Twilight 5:01 AM MDT 9:08 PM MDT
Moon 5:27 AM MDT (3/28) 5:16 PM MDT (3/28)
Length of Visible Light 13h 38m
Length of Day
12h 37m
Waning Crescent, 6% of the Moon is Illuminated
Mar 28
Waning Crescent
Mar 30
New
Apr 7
First Quarter
Apr 15
Full
Apr 22
Last Quarter

Hourly Weather History & Observations

Time (MDT) Temp. Windchill Dew Point Humidity Pressure Visibility Wind Dir Wind Speed Gust Speed Precip Events Conditions
12:15 AM 28.4 °F 18.0 °F 15.8 °F 59% 29.85 in 10.0 mi NE 12.7 mph - N/A   Scattered Clouds
12:35 AM 28.4 °F 19.1 °F 15.8 °F 59% 29.85 in 10.0 mi NE 10.4 mph - N/A   Partly Cloudy
12:55 AM 28.4 °F 18.5 °F 17.6 °F 64% 29.86 in 10.0 mi NE 11.5 mph - N/A   Clear
1:15 AM 28.4 °F 18.0 °F 15.8 °F 59% 29.87 in 10.0 mi NE 12.7 mph - N/A   Clear
1:35 AM 28.4 °F 18.5 °F 15.8 °F 59% 29.87 in 10.0 mi NE 11.5 mph - N/A   Clear
1:55 AM 28.4 °F 19.1 °F 15.8 °F 59% 29.88 in 10.0 mi NE 10.4 mph - N/A   Clear
2:15 AM 28.4 °F 18.0 °F 15.8 °F 59% 29.88 in 10.0 mi NE 12.7 mph - N/A   Clear
2:35 AM 28.4 °F 18.0 °F 15.8 °F 59% 29.89 in 10.0 mi NE 12.7 mph - N/A   Clear
2:55 AM 28.4 °F 18.5 °F 15.8 °F 59% 29.89 in 10.0 mi NE 11.5 mph - N/A   Clear
3:15 AM 28.4 °F 18.0 °F 15.8 °F 59% 29.89 in 10.0 mi NE 12.7 mph - N/A   Mostly Cloudy
3:35 AM 28.4 °F 18.0 °F 15.8 °F 59% 29.90 in 10.0 mi NE 12.7 mph - N/A   Mostly Cloudy
3:55 AM 28.4 °F 18.5 °F 17.6 °F 64% 29.90 in 10.0 mi ENE 11.5 mph - N/A   Overcast
4:15 AM 26.6 °F 15.7 °F 19.4 °F 74% 29.91 in 5.0 mi NE 12.7 mph - N/A   Overcast
4:35 AM 24.8 °F 13.4 °F 21.2 °F 86% 29.92 in 4.0 mi NE 12.7 mph - N/A   Overcast
4:55 AM 24.8 °F 13.4 °F 21.2 °F 86% 29.93 in 2.5 mi ENE 12.7 mph - N/A   Mostly Cloudy
5:15 AM 24.8 °F 13.4 °F 21.2 °F 86% 29.93 in 2.0 mi ENE 12.7 mph - N/A   Mostly Cloudy
5:35 AM 24.8 °F 15.3 °F 21.2 °F 86% 29.94 in 1.8 mi East 9.2 mph - N/A   Overcast
5:55 AM 24.8 °F 12.9 °F 21.2 °F 86% 29.95 in 2.0 mi East 13.8 mph - N/A   Overcast
6:15 AM 24.8 °F 15.3 °F 21.2 °F 86% 29.95 in 2.0 mi East 9.2 mph - N/A   Overcast
6:35 AM 24.8 °F 14.6 °F 21.2 °F 86% 29.96 in 1.5 mi East 10.4 mph - N/A   Overcast
6:55 AM 24.8 °F 14.6 °F 19.4 °F 80% 29.97 in 1.8 mi East 10.4 mph - N/A   Overcast
7:15 AM 24.8 °F 16.9 °F 19.4 °F 80% 29.98 in 1.5 mi East 6.9 mph - N/A   Overcast
7:35 AM 23.0 °F 13.9 °F 19.4 °F 86% 29.99 in 1.8 mi East 8.1 mph - N/A   Overcast
7:55 AM 23.0 °F 14.7 °F 21.2 °F 93% 30.00 in 10.0 mi East 6.9 mph - N/A   Overcast
8:15 AM 23.0 °F 15.8 °F 19.4 °F 86% 30.01 in 10.0 mi East 5.8 mph - N/A   Overcast
8:35 AM 23.0 °F 17.0 °F 19.4 °F 86% 30.01 in 10.0 mi East 4.6 mph - N/A   Overcast
8:55 AM 24.8 °F 17.9 °F 21.2 °F 86% 30.02 in 10.0 mi ENE 5.8 mph - N/A   Overcast
9:15 AM 24.8 °F 17.9 °F 19.4 °F 80% 30.02 in 10.0 mi ENE 5.8 mph - N/A   Overcast
9:35 AM 24.8 °F 19.1 °F 19.4 °F 80% 30.03 in 10.0 mi NE 4.6 mph - N/A   Overcast
9:55 AM 24.8 °F 19.1 °F 19.4 °F 80% 30.04 in 10.0 mi East 4.6 mph - N/A   Overcast
10:35 AM 24.8 °F - 19.4 °F 80% 30.04 in 10.0 mi Calm Calm - 0.01 in   Overcast
10:55 AM 26.6 °F - 19.4 °F 74% 30.06 in 10.0 mi Calm Calm - 0.01 in   Overcast
11:15 AM 26.6 °F - 21.2 °F 80% 30.06 in 10.0 mi Calm Calm - 0.01 in   Overcast
11:35 AM 28.4 °F - 21.2 °F 74% 30.06 in 10.0 mi Calm Calm - 0.02 in   Overcast
11:55 AM 28.4 °F 24.6 °F 21.2 °F 74% 30.06 in 10.0 mi SSW 3.5 mph - 0.02 in   Overcast
12:15 PM 30.2 °F 25.4 °F 23.0 °F 75% 30.07 in 10.0 mi WSW 4.6 mph - N/A   Overcast
12:35 PM 30.2 °F 26.7 °F 23.0 °F 75% 30.06 in 10.0 mi West 3.5 mph - N/A   Overcast
12:55 PM 30.2 °F 23.4 °F 23.0 °F 75% 30.07 in 10.0 mi West 6.9 mph - N/A   Overcast
1:15 PM 30.2 °F 23.4 °F 24.8 °F 80% 30.07 in 10.0 mi West 6.9 mph - N/A   Overcast
1:35 PM 30.2 °F 26.7 °F 23.0 °F 75% 30.06 in 10.0 mi West 3.5 mph - N/A   Overcast
1:55 PM 30.2 °F 25.4 °F 24.8 °F 80% 30.06 in 10.0 mi NW 4.6 mph - N/A   Overcast
2:15 PM 30.2 °F 23.4 °F 24.8 °F 80% 30.05 in 10.0 mi WNW 6.9 mph - N/A   Overcast
2:35 PM 32.0 °F 26.4 °F 24.8 °F 75% 30.05 in 10.0 mi NNW 5.8 mph - N/A   Overcast
2:55 PM 32.0 °F 26.4 °F 23.0 °F 69% 30.06 in 10.0 mi NW 5.8 mph - N/A   Overcast
3:15 PM 32.0 °F 24.8 °F 23.0 °F 69% 30.06 in 10.0 mi NNW 8.1 mph - N/A   Overcast
3:35 PM 33.8 °F 28.6 °F 24.8 °F 70% 30.05 in 10.0 mi West 5.8 mph - N/A   Overcast
4:15 PM 33.8 °F 29.6 °F 23.0 °F 65% 30.06 in 10.0 mi WNW 4.6 mph - N/A   Overcast
4:35 PM 33.8 °F 29.6 °F 24.8 °F 70% 30.06 in 10.0 mi NW 4.6 mph - N/A   Overcast
4:55 PM 33.8 °F 27.0 °F 24.8 °F 70% 30.05 in 10.0 mi NNW 8.1 mph - N/A   Overcast
5:15 PM 33.8 °F 28.6 °F 23.0 °F 65% 30.04 in 10.0 mi North 5.8 mph - N/A   Overcast
5:35 PM 33.8 °F - 24.8 °F 70% 30.04 in 10.0 mi Calm Calm - N/A   Overcast
5:55 PM 33.8 °F - 24.8 °F 70% 30.04 in 10.0 mi Calm Calm - N/A   Overcast
6:15 PM 33.8 °F 30.8 °F 24.8 °F 70% 30.04 in 10.0 mi ESE 3.5 mph - N/A   Overcast
6:35 PM 32.0 °F 26.4 °F 23.0 °F 69% 30.04 in 10.0 mi East 5.8 mph - N/A   Scattered Clouds
6:55 PM 32.0 °F 27.5 °F 24.8 °F 75% 30.04 in 10.0 mi East 4.6 mph - N/A   Clear
7:15 PM 30.2 °F 24.3 °F 23.0 °F 75% 30.04 in 10.0 mi East 5.8 mph - N/A   Clear
7:35 PM 28.4 °F 21.2 °F 21.2 °F 74% 30.02 in 10.0 mi ENE 6.9 mph - N/A   Clear
7:55 PM 26.6 °F 20.0 °F 21.2 °F 80% 30.03 in 10.0 mi East 5.8 mph - N/A   Clear
8:15 PM 26.6 °F 19.1 °F 21.2 °F 80% 30.02 in 10.0 mi East 6.9 mph - N/A   Clear
8:35 PM 26.6 °F 19.1 °F 21.2 °F 80% 30.02 in 10.0 mi East 6.9 mph - N/A   Clear
8:55 PM 26.6 °F 19.1 °F 21.2 °F 80% 30.01 in 10.0 mi ENE 6.9 mph - N/A   Clear
9:15 PM 26.6 °F 20.0 °F 21.2 °F 80% 30.00 in 10.0 mi East 5.8 mph - N/A   Clear
9:35 PM 26.6 °F 21.2 °F 24.8 °F 93% 30.00 in 10.0 mi ESE 4.6 mph - N/A   Clear
9:55 PM 26.6 °F 20.0 °F 23.0 °F 86% 29.98 in 10.0 mi SE 5.8 mph - N/A   Clear
10:15 PM 26.6 °F 20.0 °F 21.2 °F 80% 29.98 in 10.0 mi SSE 5.8 mph - N/A   Clear
10:35 PM 26.6 °F 21.2 °F 23.0 °F 86% 29.97 in 10.0 mi SSE 4.6 mph - N/A   Clear
10:55 PM 26.6 °F 19.1 °F 23.0 °F 86% 29.97 in 10.0 mi South 6.9 mph - N/A   Clear
11:15 PM 28.4 °F 20.4 °F 24.8 °F 86% 29.96 in 10.0 mi South 8.1 mph - N/A   Mostly Cloudy
11:35 PM 28.4 °F 23.3 °F 24.8 °F 86% 29.95 in 10.0 mi SE 4.6 mph - N/A   Overcast
11:55 PM 28.4 °F 22.2 °F 24.8 °F 86% 29.94 in 10.0 mi SSE 5.8 mph - N/A   Overcast